This demonstration page uses our WeatherBlox Daily Observations layout. Learn more.

Left ArrowRight Arrow

Hourly Observations for May 13, 2015

Temp ( °F °C ) Dew Point ( °F °C ) Humidity (%) Winds ( mph kmh ) Pressure ( in mb ) Visibility ( mi km ) Precip ( " mm )
12:53 am 00:53 Clear 54 12.2 40 4.4 59 59 SSE 13 20 30.15 1021 10 16 0.00 0.00
1:53 am 01:53 Clear 50 10 41 5 71 71 SSE 10 17 30.15 1021 10 16 0.00 0.00
2:53 am 02:53 Clear 49 9.4 40 4.4 71 71 SSE 12 19 30.14 1021 10 16 0.00 0.00
3:53 am 03:53 Clear 49 9.4 40 4.4 71 71 SSE 12 19 30.14 1021 10 16 0.00 0.00
4:53 am 04:53 Clear 49 9.4 40 4.4 71 71 SSE 9 15 30.13 1020 10 16 0.00 0.00
5:53 am 05:53 Clear 49 9.4 40 4.4 71 71 SSE 10 17 30.13 1020 10 16 0.00 0.00
6:53 am 06:53 Sunny 49 9.4 41 5 74 74 SSE 12 19 30.13 1020 10 16 0.00 0.00
7:53 am 07:53 Partly Cloudy 54 12.2 42 5.6 64 64 SSE 15 24 30.14 1021 10 16 0.00 0.00
8:53 am 08:53 Sunny 56 13.3 42 5.6 60 60 SSE 17 28 30.15 1021 10 16 0.00 0.00
9:53 am 09:53 Cloudy 61 16.1 43 6.1 52 52 S 20 31 30.13 1020 10 16 0.00 0.00
10:53 am 10:53 Sunny 65 18.3 46 7.8 51 51 S 18 30 30.12 1020 10 16 0.00 0.00
11:53 am 11:53 Partly Cloudy 65 18.3 47 8.3 52 52 S 22 35 30.12 1020 10 16 0.00 0.00
12:53 pm 12:53 Mostly Cloudy 65 18.3 49 9.4 56 56 S 17 28 30.11 1020 10 16 0.00 0.00
1:53 pm 13:53 Mostly Cloudy 69 20.6 51 10.6 53 53 S 17 28 30.08 1019 10 16 0.00 0.00
2:53 pm 14:53 Partly Cloudy 69 20.6 52 11.1 55 55 S 15 24 30.08 1019 10 16 0.00 0.00
3:53 pm 15:53 Mostly Cloudy 67 19.4 53 11.7 61 61 S 16 26 30.06 1018 10 16 0.00 0.00
4:53 pm 16:53 Mostly Cloudy 65 18.3 52 11.1 63 63 SSE 18 30 30.05 1018 10 16 0.00 0.00
5:53 pm 17:53 Mostly Cloudy 63 17.2 52 11.1 68 68 SSE 13 20 30.05 1018 10 16 0.00 0.03
6:53 pm 18:53 Cloudy with Light Rain 60 15.6 51 10.6 72 72 SE 20 31 30.05 1018 10 16 0.00 0.03
7:05 pm 19:05 Cloudy with Light Rain 59 15 50 10 72 72 SE 15 24 30.03 1017 10 16 0.00 0.03
7:37 pm 19:37 Cloudy with Light Rain 57 13.9 52 11.1 83 83 SE 15 24 30.06 1018 5 8 0.02 0.51
7:53 pm 19:53 Cloudy with Light Rain 56 13.3 52 11.1 87 87 SE 13 20 30.04 1017 5 8 0.03 0.76
8:25 pm 20:25 Cloudy with Light Rain 54 12.2 52 11.1 93 93 SE 15 24 30.03 1017 4 6 0.05 1.27
8:37 pm 20:37 Cloudy with Light Rain 54 12.2 52 11.1 93 93 SE 15 24 30.03 1017 5 8 0.06 1.52
8:53 pm 20:53 Cloudy with Light Rain 53 11.7 51 10.6 93 93 SE 16 26 30.04 1017 5 8 0.08 2.03
9:53 pm 21:53 Cloudy with Light Rain 53 11.7 52 11.1 96 96 SE 8 13 30.04 1017 5 8 0.14 3.56
10:33 pm 22:33 Cloudy with Light Rain 54 12.2 52 11.1 93 93 ESE 12 19 30.03 1017 5 8 0.08 2.03
10:53 pm 22:53 Cloudy with Light Rain 54 12.2 52 11.1 93 93 ESE 14 22 30.02 1017 5 8 0.11 2.79
11:53 pm 23:53 Cloudy with Rain 54 12.2 52 11.1 93 93 SE 12 19 30.00 1016 4 6 0.12 3.05

Powered by AerisWeather